Probability
0 0 0 0 0 0 0 0 0 0 0 0 0 0 0 0 0 0 0 0 0 0 0 0 0 0 0 0 0 0 0 0 0 0 0 0 0 0 0 0 0 0 0
0 0 0 0 0 0 0 0 0 0 0 0 0 0 0 0 0 0 0 0 0 0 0 0 0 0 0 0 0 0 0 0 0 0 0 0 0 0 0 0 0 0 0
0 0 0 0 0 0 0 0 0 0 0 0 0 0 0 0 0 0 0 0 0 0 0 0 0 0 0 0 0 0 0 0 0 0 0 0 0 0 0 0 0 0 0
0 0 0 0 0 0 0 0 0 0 0 0 0 0 0 0 0 0 0 0 0 0 0 0 0 0 0 0 0 0 0 0 0 0 0 0 0 0 0 0 0 0 0
0 0 0 0 0 0 0 0 0 0 0 0 0 0 0 0 0 0 0 0 0 0 0 0 0 0 0 0 0 0 0 0 0 0 0 0 0 0 0 0 0 0 0
0 0 0 0 0 0 0 0 0 0 0 0 0 0 0 0 0 0 0 0 0 0 0 0 0 0 0 0 0 0 0 0 0 0 0 0 0 0 0 0 0 0 0
0 0 0 0 0 0 0 0 0 0 0 0 0 0 0 0 0 0 0 0 0 0 0 0 0 0 0 0 0 0 0 0 0 0 0 0 0 0 0 0 0 0 0
0 0 0 0 0 0 0 0 0 0 0 0 0 0 0 0 0 0 0 0 0 0 0 0 0 0 0 0 0 0 0 0 0 0 0 0 0 0 0 0 0 0 0
0 0 0 0 0 0 0 0 0 0 0 0 0 0 0 0 0 0 0 0 0 0 0 0 0 0 0 0 0 0 0 0 0 0 0 0 0 0 0 0 0 0 0
0 0 0 0 0 0 0 0 0 0 0 0 0 0 0 0 0 0 0 0 0 0 0 0 0 0 0 0 0 0 0 0 0 0 0 0 0 0 0 0 0 0 0
0 0 0 0 0 0 0 0 0 0 0 0 0 0 0 0 0 0 0 0 0 0 0 0 0 0 0 0 0 0 0 0 0 0 0 0 0 0 0 0 0 0 0
0 0 0 0 0 0 0 0 0 0 0 0 0 0 0 0 0 0 0 0 0 0 0 0 0 0 0 0 0 0 0 0 0 0 0 0 0 0 0 0 0 0 0
0 0 0 0 0 0 0 0 0 0 0 0 0 0 0 0 0 0 0 0 0 0 0 0 0 0 0 0 0 0 0 0 0 0 0 0 0 0 0 0 0 0 0
0 0 0 0 0 0 0 0 0 0 0 0 0 0 0 0 0 0 0 0 0 0 0 0 0 0 0 0 0 0 0 0 0 0 0 0 0 0 0 0 0 0 0
0 0 0 0 0 0 0 0 0 0 0 0 0 0 0 0 0 0 0 0 0 0 0 0 0 0 0 0 0 0 0 0 0 0 0 0 0 0 0 0 0 0 0
0 0 0 0 0 0 0 0 0 0 0 0 0 0 0 0 0 0 0 0 0 0 0 0 0 0 0 0 0 0 0 0 0 0 0 0 0 0 0 0 0 0 0
0 0 0 0 0 0 0 0 0 0 0 0 0 0 0 0 0 0 0 0 0 0 0 0 0 0 0 0 0 0 0 0 0 0 0 0 0 0 0 0 0 0 0
0 0 0 0 0 0 0 0 0 0 0 0 0 0 0 0 0 0 0 0 0 0 0 0 0 0 0 0 0 0 0 0 0 0 0 0 0 0 0 0 0 0 0
0 0 0 0 0 0 0 0 0 0 0 0 0 0 0 0 0 0 0 0 0 0 0 0 0 0 0 0 0 0 0 0 0 0 0 0 0 0 0 0 0 0 0
0 0 0 0 0 0 0 0 0 0 0 0 0 0 0 0 0 0 0 0 0 0 0 0 0 0 0 0 0 0 0 0 0 0 0 0 0 0 0 0 0 0 0
0 0 0 0 0 0 0 0 0 0 0 0 0 0 0 0 0 0 0 0 0 0 0 0 0 0 0 0 0 0 0 0 0 0 0 0 0 0 0 0 0 0 0
0 0 0 0 0 0 0 0 0 0 0 0 0 0 0 0 0 0 0 0 0 0 0 0 0 0 0 0 0 0 0 0 0 0 0 0 0 0 0 0 0 0 0
0 0 0 0 0 0 0 0 0 0 0 0 0 0 0 0 0 0 0 0 0 0 0 0 0 0 0 0 0 0 0 0 0 0 0 0 0 0 0 0 0 0 0
0 0 0 0 0 0 0 0 0 0 0 0 0 0 0 0 0 0 0 0 0 0 0 0 0 0 0 0 0 0 0 0 0 0 0 0 0 0 0 0 0 0 0
0 0 0 0 0 0 0 0 0 0 0 0 0 0 0 0 0 0 0 0 0 0 0 0 0 0 0 0 0 0 0 0 0 0 0 0 0 0 0 0 0 0 0
0 0 0 0 0 0 0 0 0 0 0 0 0 0 0 0 0 0 0 0 0 0 0 0 0 0 0 0 0 0 0 0 0 0 0 0 0 0 0 0 0 0 0
Height
5668 5670 5673 5676 5679 5682 5686 5689 5693 5696 5699 5702 5706 5709 5713 5717 5721 5725 5728 5732 5736 5739 5742 5746 5749 5752 5755 5757 5760 5763 5766 5768 5771 5773 5775 5778 5780 5782 5784 5786 5787 5789 5790
5656 5659 5662 5664 5668 5671 5674 5678 5681 5684 5688 5691 5695 5698 5702 5705 5710 5714 5718 5722 5725 5728 5732 5735 5739 5742 5744 5747 5750 5753 5756 5759 5761 5764 5767 5769 5772 5773 5775 5777 5779 5781 5782
5644 5646 5649 5652 5656 5659 5663 5666 5670 5673 5676 5679 5682 5686 5689 5693 5698 5702 5707 5711 5714 5718 5721 5725 5728 5731 5734 5737 5740 5743 5746 5749 5752 5754 5757 5760 5762 5764 5766 5768 5770 5772 5773
5631 5634 5637 5640 5643 5647 5650 5654 5657 5660 5663 5667 5670 5674 5678 5682 5687 5691 5695 5699 5702 5707 5710 5714 5717 5720 5723 5726 5729 5732 5736 5738 5741 5743 5746 5750 5753 5755 5757 5759 5760 5762 5764
5618 5621 5624 5627 5631 5634 5638 5641 5644 5647 5651 5655 5658 5662 5666 5670 5674 5678 5683 5687 5691 5695 5699 5702 5705 5708 5712 5715 5717 5721 5724 5727 5730 5733 5735 5738 5741 5744 5747 5749 5750 5752 5754
5606 5608 5612 5615 5618 5621 5625 5629 5632 5635 5638 5642 5646 5649 5653 5657 5661 5666 5671 5675 5679 5683 5687 5690 5694 5697 5700 5703 5706 5709 5712 5715 5718 5721 5724 5727 5729 5732 5735 5738 5740 5742 5744
5594 5596 5599 5603 5606 5609 5612 5616 5619 5622 5626 5630 5633 5637 5640 5645 5649 5654 5658 5662 5667 5671 5674 5678 5682 5685 5688 5691 5694 5697 5700 5703 5706 5709 5712 5715 5717 5720 5723 5726 5728 5730 5732
5582 5585 5587 5590 5593 5596 5599 5603 5606 5610 5613 5617 5621 5624 5628 5632 5637 5641 5645 5649 5654 5658 5661 5665 5669 5672 5675 5678 5681 5684 5687 5690 5693 5696 5699 5702 5705 5707 5710 5713 5716 5718 5721
5570 5573 5575 5578 5580 5583 5586 5590 5593 5597 5600 5604 5608 5611 5615 5619 5624 5629 5632 5636 5640 5644 5647 5652 5655 5659 5662 5665 5668 5671 5674 5677 5680 5683 5686 5689 5692 5695 5697 5700 5703 5706 5708
5558 5560 5562 5565 5567 5570 5573 5577 5581 5584 5588 5591 5595 5598 5602 5607 5611 5615 5619 5623 5627 5630 5634 5638 5641 5645 5648 5651 5654 5657 5660 5663 5666 5669 5672 5675 5678 5681 5684 5686 5689 5692 5695
5546 5548 5550 5553 5555 5558 5561 5564 5568 5571 5575 5578 5581 5585 5590 5594 5597 5601 5605 5609 5613 5617 5620 5624 5627 5630 5634 5637 5640 5643 5646 5649 5652 5655 5658 5661 5664 5667 5670 5672 5675 5678 5681
5536 5537 5538 5541 5543 5546 5548 5551 5555 5558 5561 5565 5568 5573 5576 5580 5584 5588 5591 5595 5599 5603 5606 5610 5613 5616 5620 5623 5626 5629 5632 5634 5638 5641 5644 5646 5649 5653 5656 5659 5661 5664 5666
5525 5526 5527 5529 5531 5533 5536 5539 5542 5545 5548 5552 5555 5559 5563 5567 5570 5574 5578 5581 5585 5589 5592 5595 5599 5602 5605 5609 5612 5615 5618 5620 5623 5626 5629 5632 5635 5638 5641 5644 5647 5649 5652
5515 5516 5516 5517 5519 5521 5524 5526 5529 5532 5535 5539 5542 5546 5550 5554 5557 5560 5564 5568 5571 5574 5578 5581 5584 5588 5591 5594 5597 5600 5603 5606 5609 5611 5614 5617 5620 5623 5626 5629 5631 5634 5637
5505 5506 5506 5507 5508 5510 5512 5514 5517 5520 5523 5526 5529 5533 5537 5540 5543 5547 5550 5554 5557 5560 5563 5567 5570 5573 5576 5579 5582 5585 5588 5591 5594 5597 5599 5602 5605 5607 5610 5613 5616 5619 5622
5495 5496 5496 5497 5497 5499 5501 5503 5506 5508 5511 5514 5517 5521 5524 5527 5530 5533 5536 5539 5542 5545 5548 5552 5555 5558 5561 5564 5567 5570 5573 5576 5579 5582 5585 5587 5590 5592 5595 5598 5600 5603 5606
5485 5486 5487 5487 5488 5489 5491 5493 5495 5497 5500 5503 5505 5508 5511 5514 5517 5520 5522 5525 5528 5531 5534 5537 5540 5543 5546 5549 5552 5555 5558 5561 5564 5567 5569 5572 5575 5577 5580 5582 5585 5587 5590
5476 5477 5477 5478 5479 5479 5481 5483 5485 5487 5489 5491 5493 5496 5498 5502 5504 5507 5509 5512 5514 5517 5520 5523 5526 5529 5532 5534 5537 5540 5543 5546 5549 5551 5554 5557 5559 5562 5564 5567 5569 5571 5574
5467 5467 5468 5468 5469 5470 5471 5473 5474 5476 5478 5480 5482 5484 5486 5489 5491 5494 5496 5499 5501 5504 5506 5509 5512 5515 5518 5520 5522 5525 5528 5531 5534 5536 5539 5541 5544 5546 5549 5551 5554 5556 5558
5457 5458 5458 5459 5460 5461 5461 5463 5464 5466 5468 5469 5471 5473 5474 5476 5478 5481 5483 5485 5488 5490 5493 5495 5498 5500 5503 5506 5508 5510 5513 5516 5519 5521 5524 5526 5528 5530 5532 5534 5537 5539 5542
5448 5448 5449 5450 5450 5451 5452 5453 5454 5456 5457 5458 5460 5461 5462 5464 5466 5468 5470 5472 5475 5477 5479 5482 5484 5486 5489 5491 5493 5495 5498 5500 5503 5506 5508 5510 5512 5514 5516 5518 5520 5523 5525
5439 5439 5440 5440 5441 5442 5443 5444 5444 5445 5447 5448 5449 5450 5450 5452 5454 5455 5457 5459 5461 5463 5465 5468 5470 5472 5474 5476 5478 5481 5483 5485 5487 5490 5493 5495 5497 5499 5501 5502 5505 5506 5508
5430 5430 5430 5431 5432 5432 5433 5434 5434 5435 5436 5437 5438 5438 5439 5440 5442 5443 5445 5447 5448 5450 5452 5454 5457 5458 5460 5462 5464 5466 5468 5470 5472 5475 5477 5479 5481 5483 5485 5487 5488 5490 5491
5420 5420 5421 5421 5422 5422 5423 5423 5424 5425 5425 5426 5427 5427 5428 5429 5430 5431 5433 5434 5436 5438 5440 5442 5443 5445 5447 5448 5450 5452 5454 5456 5457 5460 5462 5464 5465 5467 5469 5471 5472 5474 5475
5411 5411 5411 5411 5412 5412 5413 5413 5414 5415 5415 5416 5416 5416 5417 5418 5419 5419 5421 5422 5424 5425 5427 5429 5430 5432 5434 5435 5436 5438 5440 5441 5443 5445 5447 5449 5451 5452 5454 5456 5457 5458 5459
5402 5401 5401 5402 5402 5402 5403 5403 5403 5404 5405 5405 5405 5406 5406 5406 5407 5408 5409 5410 5412 5413 5414 5415 5417 5418 5420 5421 5423 5424 5426 5427 5429 5430 5432 5434 5436 5438 5439 5440 5442 5443 5444
Wind_Speed
45 45 46 46 46 46 46 46 45 46 46 46 47 46 46 46 45 45 45 44 44 44 44 43 43 42 42 41 41 40 40 40 40 39 38 38 37 36 35 35 35 34 33
46 46 46 47 47 48 48 47 47 47 47 47 48 48 48 48 48 47 47 46 45 44 44 45 45 44 43 42 42 42 42 42 41 41 40 40 39 38 37 37 37 36 35
46 46 46 47 48 48 49 49 49 48 48 48 49 49 49 49 49 48 47 48 47 46 45 46 46 46 45 44 43 44 44 44 43 43 43 42 41 40 39 39 39 38 37
47 47 47 47 48 48 49 50 50 50 49 49 49 50 49 49 49 49 49 49 49 48 47 48 47 46 46 45 45 45 46 46 45 45 45 44 43 42 41 41 40 39 39
47 47 47 47 48 49 50 50 50 50 50 50 49 50 51 51 52 52 51 50 49 48 49 49 48 48 48 47 47 47 47 47 47 47 47 46 45 45 44 43 42 41 41
46 46 46 47 48 49 49 50 51 51 51 51 51 51 51 52 52 52 52 51 52 51 51 50 49 50 50 49 48 49 48 47 48 48 48 48 47 47 46 46 45 44 44
44 45 46 47 48 48 49 50 51 51 52 52 52 52 52 52 52 52 51 51 52 53 53 52 50 49 50 51 50 50 50 49 49 50 50 49 48 48 48 48 47 46 45
43 44 45 46 47 48 49 49 51 51 51 52 52 52 53 53 53 53 52 51 52 53 53 54 53 51 50 51 52 52 52 51 51 52 52 51 51 51 50 50 50 48 47
42 43 44 45 46 47 48 48 49 50 51 51 52 53 54 54 54 54 54 53 53 54 54 54 54 54 53 52 52 52 53 53 53 53 53 54 53 53 52 52 52 51 50
42 42 43 44 45 47 48 48 49 50 50 51 52 52 53 53 54 54 54 53 55 55 55 54 54 54 55 54 53 53 53 53 53 53 53 54 54 53 53 52 52 52 52
39 40 41 42 44 46 47 48 48 49 50 50 51 52 52 52 53 54 53 53 54 54 55 55 55 55 54 54 55 54 53 54 53 53 53 53 54 54 53 52 52 52 52
37 39 40 41 42 44 46 47 48 47 48 49 50 51 51 52 53 53 53 53 54 54 54 54 55 55 55 54 54 54 54 53 53 53 53 53 53 54 54 53 53 53 53
36 37 38 40 42 44 45 46 46 46 47 48 50 51 51 51 52 52 52 52 53 54 54 55 54 55 55 55 55 55 54 53 54 54 54 53 53 54 55 55 55 55 55
35 35 36 38 40 42 44 45 46 46 46 47 48 50 50 50 51 51 51 52 52 53 54 55 54 54 54 54 55 55 54 54 54 54 55 55 55 54 55 56 56 56 55
34 34 34 35 37 39 41 42 43 44 45 46 47 48 50 50 51 51 51 52 53 54 55 55 55 55 54 54 54 55 55 55 54 54 55 55 56 56 56 56 56 57 56
34 33 33 33 34 36 38 39 40 42 43 45 46 46 48 49 49 50 51 52 52 53 54 55 55 55 54 54 54 54 55 55 55 55 55 55 56 57 57 57 56 57 58
31 31 31 32 32 33 35 37 38 40 41 43 44 45 47 47 48 49 49 50 50 51 52 52 53 53 54 54 54 54 54 54 55 55 55 55 55 56 56 56 58 59 59
31 31 31 31 31 32 34 36 38 39 40 41 43 44 45 46 47 47 48 48 48 49 50 50 50 51 52 52 53 53 54 54 54 55 55 55 55 55 56 57 57 58 59
32 32 32 32 32 32 33 35 36 37 38 39 41 43 44 45 45 46 46 47 48 49 49 49 50 51 51 52 52 53 53 53 53 54 55 55 55 56 57 58 58 58 59
31 32 33 32 32 32 32 33 35 36 37 39 40 42 43 44 44 45 45 46 46 47 48 49 49 50 51 52 52 53 53 53 53 53 53 54 54 56 57 57 58 58 58
31 32 33 32 32 32 32 32 34 35 36 37 39 40 41 43 43 43 44 45 45 46 46 47 48 49 50 51 52 52 52 53 53 53 53 53 53 54 55 55 56 56 57
30 32 32 32 32 32 32 32 33 34 35 36 37 38 39 41 41 42 43 43 43 44 44 45 47 48 49 50 51 51 52 52 52 53 53 53 53 53 54 54 54 55 56
30 31 32 32 33 33 33 33 33 33 34 35 35 37 38 39 40 41 42 42 42 42 43 44 44 45 46 47 49 50 51 52 52 51 52 52 53 53 53 54 54 55 56
30 30 31 32 32 33 34 34 33 33 33 34 35 35 37 38 39 40 41 41 41 41 42 43 43 44 45 45 47 48 49 50 51 51 51 51 52 52 52 52 53 53 54
30 30 30 32 33 33 33 33 33 33 33 34 34 34 35 36 36 37 38 39 40 41 42 42 43 43 44 45 45 46 46 47 48 49 49 50 50 50 51 51 51 51 51
29 29 29 30 31 32 32 32 33 33 33 33 34 34 34 34 35 36 37 38 39 39 40 41 42 43 43 43 44 44 44 45 46 46 46 47 47 48 48 49 49 49 50
Wind_Direction
255 254 253 251 249 248 248 248 248 248 248 248 247 247 247 247 246 244 245 247 247 247 248 248 249 250 251 251 251 251 251 252 253 253 253 253 254 254 255 256 257 258 258
256 255 253 251 249 249 248 248 248 249 249 248 248 247 247 246 245 243 243 245 246 247 248 248 249 249 250 251 252 251 251 252 253 253 253 253 254 254 255 256 256 256 257
255 254 252 251 250 249 248 247 248 248 248 248 248 248 247 246 245 244 244 244 245 247 249 249 249 249 250 251 251 251 251 251 252 253 253 253 253 254 255 256 256 256 258
254 252 252 251 250 249 248 248 247 247 248 248 248 248 248 247 246 246 245 245 246 248 250 251 250 249 250 250 252 252 251 251 251 252 252 254 254 254 254 255 256 257 257
254 252 251 250 250 249 249 248 248 247 247 248 249 249 248 247 246 246 247 247 247 248 249 250 250 250 250 250 252 252 252 251 251 252 253 254 254 254 254 255 256 257 257
255 252 251 250 249 249 248 248 248 248 247 247 249 250 248 247 246 246 248 248 248 248 248 250 252 251 251 251 252 253 253 252 252 252 252 253 254 254 254 256 256 257 258
255 253 252 251 250 249 248 248 248 248 248 248 249 249 249 248 247 247 248 249 249 249 250 251 253 253 253 253 252 253 254 254 254 253 252 253 253 254 255 256 256 257 257
256 255 253 251 250 249 248 247 248 248 249 248 249 249 249 248 247 247 248 249 249 250 252 252 253 254 254 254 253 253 254 255 255 255 253 253 253 254 255 256 257 257 257
257 256 254 253 251 249 248 247 248 248 248 249 249 250 250 248 247 248 249 249 250 251 252 253 253 254 255 255 255 254 255 255 255 255 255 253 254 255 255 256 257 258 259
258 257 255 253 252 250 249 248 248 248 249 249 249 249 249 248 248 249 250 249 250 251 252 253 254 254 255 255 255 255 256 256 255 255 254 253 254 254 255 256 257 258 258
259 257 255 254 253 252 251 251 250 249 249 249 248 247 247 248 249 249 249 249 250 251 251 252 254 254 255 255 256 256 256 256 255 255 254 253 254 254 255 256 257 257 258
261 258 256 255 254 252 251 252 252 251 249 249 248 246 248 249 248 248 249 249 250 251 252 252 253 255 255 255 255 255 256 256 256 255 255 254 254 254 255 256 257 258 259
264 261 258 256 255 253 252 252 251 250 250 249 248 248 249 249 249 249 249 249 250 250 251 251 253 254 255 255 255 256 256 257 257 257 256 256 256 256 256 257 258 259 259
266 263 261 259 258 255 253 252 251 250 250 249 249 248 249 250 250 249 249 249 250 251 251 251 252 254 254 255 255 255 256 256 257 257 257 257 257 257 257 257 257 258 259
267 264 262 261 259 257 254 253 253 251 250 249 249 249 249 250 249 249 249 249 251 251 252 252 253 253 253 253 254 254 255 255 256 257 257 257 257 257 257 257 257 258 258
266 264 261 261 260 257 254 253 253 252 251 250 250 250 250 251 251 250 250 250 251 252 252 252 252 253 253 253 254 254 255 255 255 256 256 257 258 258 257 257 257 258 258
265 262 261 262 261 258 255 252 253 253 253 252 250 250 251 251 252 253 252 252 252 252 253 253 253 253 253 253 254 254 254 255 255 255 256 257 258 257 257 257 257 258 258
265 262 260 261 261 259 257 254 253 252 253 252 251 251 252 253 253 254 254 253 252 252 253 253 253 252 252 253 254 254 254 255 256 256 256 257 257 257 258 258 258 258 258
267 265 262 261 262 261 259 257 255 254 254 254 254 254 254 254 253 254 254 254 254 253 253 253 253 253 253 253 254 255 255 256 257 257 257 257 257 258 259 259 259 259 260
269 267 264 262 261 262 260 258 257 256 256 256 257 257 255 254 254 254 254 255 255 255 255 254 253 253 254 254 255 256 256 257 258 258 258 258 258 258 259 260 260 261 261
269 267 266 263 262 262 261 260 259 258 257 257 259 259 257 255 253 254 254 255 255 256 255 254 254 255 255 256 256 256 258 258 258 258 258 259 259 259 259 260 261 261 262
272 269 267 265 263 263 263 262 261 260 259 259 260 260 259 257 255 255 256 256 256 255 255 255 255 256 256 256 256 256 258 258 259 259 259 258 259 259 260 261 262 263 264
273 271 267 265 264 264 263 264 263 262 262 261 261 260 259 258 258 258 258 257 257 256 256 256 256 256 256 257 257 257 258 258 259 259 259 259 259 260 261 262 263 264 265
274 272 269 267 266 265 264 264 264 264 264 263 262 261 260 259 259 259 259 258 258 258 258 258 257 257 257 258 259 259 259 259 259 259 260 260 260 261 262 263 264 265 266
275 273 271 269 267 267 266 266 265 265 266 265 263 262 261 260 260 260 260 259 259 259 260 259 259 259 258 258 259 259 259 259 260 260 260 260 261 261 262 263 264 264 265
275 273 272 270 269 268 268 267 266 266 266 266 265 264 264 263 261 261 261 262 261 261 260 260 260 260 260 260 259 260 260 259 260 260 260 261 261 261 262 263 264 264 265